This is the latest recevied weather packets stored in our database for station/object N4RCT. If no packets are shown the sender has not sent any weather packets the latest 10 day(s).
| Time | Temp. | Humidity | Pressure | Rain* | Wind** | Luminosity | Snow |
|---|---|---|---|---|---|---|---|
| 1777557239 | 15° C | 91% | 1012.4 hPa | 0 mm | - | 352 W/m² | - |
| 1777556934 | 15° C | 88% | 1012 hPa | 0 mm | - | 326 W/m² | - |
| 1777556630 | 15° C | 90% | 1012.2 hPa | 0 mm | - | 276 W/m² | - |
| 1777556324 | 15° C | 93% | 1012.2 hPa | 0 mm | - | 225 W/m² | - |
| 1777556021 | 15° C | 93% | 1012.3 hPa | 0 mm | - | 184 W/m² | - |
| 1777555716 | 15° C | 94% | 1012.2 hPa | 0 mm | - | 279 W/m² | - |
| 1777555413 | 15° C | 93% | 1012.1 hPa | 0 mm | - | 158 W/m² | - |
| 1777555109 | 15° C | 95% | 1012.1 hPa | 0 mm | - | 140 W/m² | - |
| 1777554807 | 15° C | 93% | 1012.1 hPa | 0 mm | - | 194 W/m² | - |
| 1777554503 | 15° C | 92% | 1012 hPa | 0 mm | - | 224 W/m² | - |
| 1777554201 | 15° C | 93% | 1011.8 hPa | 0 mm | - | 260 W/m² | - |
| 1777553897 | 15° C | 96% | 1011.8 hPa | 0 mm | - | 137 W/m² | - |
| 1777553594 | 14.44° C | 95% | 1011.7 hPa | 0 mm | - | 215 W/m² | - |
| 1777553290 | 14.44° C | 95% | 1011.7 hPa | 0 mm | - | 138 W/m² | - |
| 1777552986 | 14.44° C | 97% | 1011.6 hPa | 0 mm | - | 131 W/m² | - |
| 1777552685 | 14.44° C | 98% | 1011.6 hPa | 0 mm | - | 127 W/m² | - |
| 1777552383 | 14.44° C | 98% | 1011.7 hPa | 0 mm | - | 130 W/m² | - |
| 1777552079 | 13.89° C | 99% | 1011.6 hPa | 0 mm | - | 95 W/m² | - |
| 1777551776 | 14.44° C | 99% | 1011.7 hPa | 0 mm | - | 59 W/m² | - |
| 1777551474 | 14.44° C | 99% | 1011.6 hPa | 0 mm | - | 58 W/m² | - |
| 1777551170 | 14.44° C | 99% | 1011.5 hPa | 0 mm | - | 65 W/m² | - |
| 1777550868 | 14.44° C | 99% | 1011.1 hPa | 0 mm | - | 67 W/m² | - |
| 1777550564 | 14.44° C | 99% | 1010.8 hPa | 0 mm | - | 58 W/m² | - |
| 1777550260 | 14.44° C | 99% | 1010.5 hPa | 0 mm | - | 60 W/m² | - |
| 1777549957 | 14.44° C | 99% | 1010.6 hPa | 0 mm | - | 40 W/m² | - |
* Rain latest hour (hover to see other rain measurements)
** Current wind speed in m/s (hover to see current wind gust speed)